Year,Month,Day,Hour,Minute,Value (Times are PST for temperature in C)
2009,04,23,00,00,5.10
2009,04,23,00,02,5.00
2009,04,23,00,03,4.90
2009,04,23,00,04,4.90
2009,04,23,00,05,4.90
2009,04,23,00,06,4.90
2009,04,23,00,07,4.80
2009,04,23,00,08,4.80
2009,04,23,00,09,4.80
2009,04,23,00,10,4.80
2009,04,23,00,11,4.70
2009,04,23,00,12,4.70
2009,04,23,00,14,4.70
2009,04,23,00,15,4.70
2009,04,23,00,16,4.70
2009,04,23,00,17,4.70
2009,04,23,00,18,4.60
2009,04,23,00,19,4.60
2009,04,23,00,20,4.60
2009,04,23,00,21,4.60
2009,04,23,00,23,4.60
2009,04,23,00,24,4.60
2009,04,23,00,25,4.50
2009,04,23,00,26,4.50
2009,04,23,00,27,4.50
2009,04,23,00,28,4.50
2009,04,23,00,29,4.50
2009,04,23,00,30,4.40
2009,04,23,00,31,4.40
2009,04,23,00,32,4.40
2009,04,23,00,33,4.40
2009,04,23,00,35,4.40
2009,04,23,00,36,4.40
2009,04,23,00,37,4.30
2009,04,23,00,39,4.30
2009,04,23,00,41,4.30
2009,04,23,00,42,4.30
2009,04,23,00,43,4.30
2009,04,23,00,44,4.30
2009,04,23,00,45,4.30
2009,04,23,00,46,4.30
2009,04,23,00,47,4.20
2009,04,23,00,48,4.20
2009,04,23,00,49,4.20
2009,04,23,00,50,4.20
2009,04,23,00,51,4.20
2009,04,23,00,52,4.20
2009,04,23,00,53,4.20
2009,04,23,00,54,4.20
2009,04,23,00,55,4.10
2009,04,23,00,56,4.10
2009,04,23,00,57,4.10
2009,04,23,00,59,4.00
2009,04,23,01,00,3.90
2009,04,23,01,03,3.80
2009,04,23,01,04,3.80
2009,04,23,01,06,3.80
2009,04,23,01,07,3.80
2009,04,23,01,08,3.70
2009,04,23,01,09,3.70
2009,04,23,01,10,3.70
2009,04,23,01,11,3.70
2009,04,23,01,12,3.70
2009,04,23,01,13,3.70
2009,04,23,01,14,3.60
2009,04,23,01,15,3.60
2009,04,23,01,16,3.60
2009,04,23,01,17,3.60
2009,04,23,01,18,3.60
2009,04,23,01,19,3.60
2009,04,23,01,20,3.50
2009,04,23,01,21,3.50
2009,04,23,01,22,3.50
2009,04,23,01,23,3.40
2009,04,23,01,25,3.40
2009,04,23,01,26,3.40
2009,04,23,01,27,3.40
2009,04,23,01,28,3.30
2009,04,23,01,29,3.30
2009,04,23,01,31,3.30
2009,04,23,01,32,3.30
2009,04,23,01,33,3.20
2009,04,23,01,34,3.20
2009,04,23,01,35,3.20
2009,04,23,01,36,3.20
2009,04,23,01,37,3.20
2009,04,23,01,38,3.20
2009,04,23,01,39,3.10
2009,04,23,01,41,3.10
2009,04,23,01,42,3.10
2009,04,23,01,43,3.00
2009,04,23,01,44,3.00
2009,04,23,01,45,3.00
2009,04,23,01,46,2.90
2009,04,23,01,47,2.90
2009,04,23,01,48,2.90
2009,04,23,01,49,2.90
2009,04,23,01,50,2.80
2009,04,23,01,51,2.80
2009,04,23,01,52,2.80
2009,04,23,01,53,2.80
2009,04,23,01,54,2.80
2009,04,23,01,55,2.70
2009,04,23,01,56,2.70
2009,04,23,01,57,2.70
2009,04,23,01,58,2.70
2009,04,23,01,59,2.70
2009,04,23,02,00,2.70
2009,04,23,02,03,2.60
2009,04,23,02,04,2.60
2009,04,23,02,05,2.60
2009,04,23,02,06,2.60
2009,04,23,02,07,2.60
2009,04,23,02,08,2.60
2009,04,23,02,09,2.60
2009,04,23,02,10,2.60
2009,04,23,02,11,2.60
2009,04,23,02,12,2.60
2009,04,23,02,13,2.50
2009,04,23,02,14,2.50
2009,04,23,02,15,2.50
2009,04,23,02,16,2.40
2009,04,23,02,17,2.40
2009,04,23,02,18,2.40
2009,04,23,02,19,2.40
2009,04,23,02,20,2.40
2009,04,23,02,22,2.30
2009,04,23,02,23,2.30
2009,04,23,02,24,2.30
2009,04,23,02,25,2.30
2009,04,23,02,26,2.30
2009,04,23,02,27,2.30
2009,04,23,02,28,2.20
2009,04,23,02,29,2.20
2009,04,23,02,30,2.20
2009,04,23,02,31,2.20
2009,04,23,02,32,2.20
2009,04,23,02,33,2.20
2009,04,23,02,34,2.20
2009,04,23,02,35,2.20
2009,04,23,02,36,2.10
2009,04,23,02,37,2.10
2009,04,23,02,38,2.10
2009,04,23,02,39,2.10
2009,04,23,02,40,2.10
2009,04,23,02,41,2.10
2009,04,23,02,42,2.10
2009,04,23,02,43,2.00
2009,04,23,02,44,2.00
2009,04,23,02,45,2.00
2009,04,23,02,46,2.00
2009,04,23,02,47,1.90
2009,04,23,02,48,1.90
2009,04,23,02,49,1.90
2009,04,23,02,50,1.90
2009,04,23,02,51,1.90
2009,04,23,02,52,1.90
2009,04,23,02,53,1.90
2009,04,23,02,54,1.90
2009,04,23,02,55,1.90
2009,04,23,02,56,1.90
2009,04,23,02,57,1.90
2009,04,23,02,58,1.90
2009,04,23,02,59,1.90
2009,04,23,03,00,1.90
2009,04,23,03,02,1.90
2009,04,23,03,03,1.90
2009,04,23,03,04,1.90
2009,04,23,03,05,1.80
2009,04,23,03,06,1.80
2009,04,23,03,08,1.80
2009,04,23,03,09,1.80
2009,04,23,03,10,1.80
2009,04,23,03,11,1.80
2009,04,23,03,12,1.80
2009,04,23,03,13,1.80
2009,04,23,03,14,1.80
2009,04,23,03,15,1.70
2009,04,23,03,16,1.70
2009,04,23,03,17,1.70
2009,04,23,03,18,1.70
2009,04,23,03,19,1.70
2009,04,23,03,20,1.70
2009,04,23,03,21,1.70
2009,04,23,03,22,1.60
2009,04,23,03,23,1.60
2009,04,23,03,24,1.60
2009,04,23,03,25,1.60
2009,04,23,03,26,1.60
2009,04,23,03,27,1.60
2009,04,23,03,28,1.60
2009,04,23,03,29,1.60
2009,04,23,03,30,1.50
2009,04,23,03,31,1.50
2009,04,23,03,33,1.40
2009,04,23,03,34,1.40
2009,04,23,03,35,1.40
2009,04,23,03,36,1.40
2009,04,23,03,37,1.40
2009,04,23,03,38,1.30
2009,04,23,03,40,1.30
2009,04,23,03,41,1.30
2009,04,23,03,42,1.30
2009,04,23,03,43,1.30
2009,04,23,03,44,1.30
2009,04,23,03,45,1.30
2009,04,23,03,46,1.30
2009,04,23,03,47,1.30
2009,04,23,03,48,1.30
2009,04,23,03,49,1.30
2009,04,23,03,50,1.30
2009,04,23,03,51,1.30
2009,04,23,03,52,1.30
2009,04,23,03,53,1.30
2009,04,23,03,54,1.30
2009,04,23,03,55,1.30
2009,04,23,03,56,1.30
2009,04,23,03,57,1.30
2009,04,23,03,58,1.30
2009,04,23,03,59,1.30
2009,04,23,04,00,1.30
2009,04,23,04,02,1.20
2009,04,23,04,03,1.20
2009,04,23,04,04,1.20
2009,04,23,04,05,1.20
2009,04,23,04,06,1.10
2009,04,23,04,07,1.10
2009,04,23,04,08,1.10
2009,04,23,04,09,1.10
2009,04,23,04,10,1.10
2009,04,23,04,11,1.10
2009,04,23,04,12,1.00
2009,04,23,04,13,1.00
2009,04,23,04,14,1.00
2009,04,23,04,15,0.90
2009,04,23,04,16,0.90
2009,04,23,04,17,0.90
2009,04,23,04,18,0.90
2009,04,23,04,19,0.90
2009,04,23,04,20,0.90
2009,04,23,04,21,0.80
2009,04,23,04,22,0.80
2009,04,23,04,23,0.80
2009,04,23,04,24,0.80
2009,04,23,04,25,0.80
2009,04,23,04,26,0.80
2009,04,23,04,27,0.80
2009,04,23,04,28,0.70
2009,04,23,04,29,0.70
2009,04,23,04,30,0.70
2009,04,23,04,31,0.70
2009,04,23,04,32,0.70
2009,04,23,04,33,0.70
2009,04,23,04,34,0.70
2009,04,23,04,35,0.70
2009,04,23,04,36,0.60
2009,04,23,04,37,0.60
2009,04,23,04,38,0.60
2009,04,23,04,39,0.60
2009,04,23,04,40,0.60
2009,04,23,04,41,0.60
2009,04,23,04,43,0.60
2009,04,23,04,44,0.50
2009,04,23,04,45,0.50
2009,04,23,04,46,0.50
2009,04,23,04,47,0.50
2009,04,23,04,48,0.40
2009,04,23,04,49,0.40
2009,04,23,04,50,0.40
2009,04,23,04,51,0.40
2009,04,23,04,52,0.40
2009,04,23,04,53,0.40
2009,04,23,04,54,0.40
2009,04,23,04,55,0.30
2009,04,23,04,56,0.30
2009,04,23,04,57,0.30
2009,04,23,04,58,0.30
2009,04,23,04,59,0.30
2009,04,23,05,00,0.30
2009,04,23,05,02,0.30
2009,04,23,05,03,0.30
2009,04,23,05,04,0.30
2009,04,23,05,05,0.30
2009,04,23,05,06,0.30
2009,04,23,05,07,0.30
2009,04,23,05,08,0.30
2009,04,23,05,09,0.30
2009,04,23,05,10,0.30
2009,04,23,05,11,0.30
2009,04,23,05,12,0.30
2009,04,23,05,13,0.30
2009,04,23,05,14,0.30
2009,04,23,05,15,0.30
2009,04,23,05,16,0.30
2009,04,23,05,17,0.20
2009,04,23,05,18,0.20
2009,04,23,05,19,0.20
2009,04,23,05,20,0.20
2009,04,23,05,21,0.20
2009,04,23,05,22,0.20
2009,04,23,05,23,0.20
2009,04,23,05,24,0.20
2009,04,23,05,25,0.20
2009,04,23,05,26,0.20
2009,04,23,05,27,0.20
2009,04,23,05,28,0.10
2009,04,23,05,29,0.10
2009,04,23,05,30,0.10
2009,04,23,05,31,0.10
2009,04,23,05,32,0.10
2009,04,23,05,33,0.10
2009,04,23,05,34,0.10
2009,04,23,05,35,0.10
2009,04,23,05,36,0.00
2009,04,23,05,37,0.00
2009,04,23,05,38,0.00
2009,04,23,05,39,0.00
2009,04,23,05,41,-0.10
2009,04,23,05,42,0.00
2009,04,23,05,43,0.00
2009,04,23,05,45,0.00
2009,04,23,05,46,0.10
2009,04,23,05,47,0.10
2009,04,23,05,48,0.10
2009,04,23,05,49,0.10
2009,04,23,05,50,0.10
2009,04,23,05,51,0.10
2009,04,23,05,52,0.10
2009,04,23,05,53,0.10
2009,04,23,05,54,0.10
2009,04,23,05,55,0.10
2009,04,23,05,56,0.10
2009,04,23,05,57,0.10
2009,04,23,05,58,0.00
2009,04,23,05,59,0.00
2009,04,23,06,00,0.00
2009,04,23,06,02,0.00
2009,04,23,06,03,-0.10
2009,04,23,06,04,-0.10
2009,04,23,06,05,-0.10
2009,04,23,06,06,-0.10
2009,04,23,06,07,-0.10
2009,04,23,06,08,-0.10
2009,04,23,06,09,-0.10
2009,04,23,06,10,-0.10
2009,04,23,06,11,-0.10
2009,04,23,06,12,-0.10
2009,04,23,06,13,-0.20
2009,04,23,06,14,-0.20
2009,04,23,06,15,-0.20
2009,04,23,06,16,-0.20
2009,04,23,06,17,-0.20
2009,04,23,06,18,-0.20
2009,04,23,06,19,-0.20
2009,04,23,06,20,-0.30
2009,04,23,06,21,-0.30
2009,04,23,06,22,-0.30
2009,04,23,06,23,-0.30
2009,04,23,06,24,-0.30
2009,04,23,06,25,-0.30
2009,04,23,06,26,-0.30
2009,04,23,06,27,-0.30
2009,04,23,06,28,-0.30
2009,04,23,06,29,-0.30
2009,04,23,06,30,-0.30
2009,04,23,06,31,-0.30
2009,04,23,06,32,-0.30
2009,04,23,06,33,-0.30
2009,04,23,06,34,-0.30
2009,04,23,06,35,-0.30
2009,04,23,06,36,-0.30
2009,04,23,06,37,-0.30
2009,04,23,06,38,-0.30
2009,04,23,06,39,-0.30
2009,04,23,06,40,-0.30
2009,04,23,06,41,-0.30
2009,04,23,06,42,-0.30
2009,04,23,06,43,-0.30
2009,04,23,06,44,-0.30
2009,04,23,06,45,-0.30
2009,04,23,06,46,-0.30
2009,04,23,06,47,-0.30
2009,04,23,06,48,-0.30
2009,04,23,06,49,-0.30
2009,04,23,06,50,-0.30
2009,04,23,06,51,-0.30
2009,04,23,06,52,-0.30
2009,04,23,06,53,-0.30
2009,04,23,06,54,-0.30
2009,04,23,06,55,-0.30
2009,04,23,06,56,-0.30
2009,04,23,06,57,-0.30
2009,04,23,06,58,-0.30
2009,04,23,06,59,-0.30
2009,04,23,07,00,-0.20
2009,04,23,07,02,-0.20
2009,04,23,07,03,-0.20
2009,04,23,07,04,-0.20
2009,04,23,07,05,-0.20
2009,04,23,07,06,-0.20
2009,04,23,07,07,-0.20
2009,04,23,07,08,-0.20
2009,04,23,07,09,-0.20
2009,04,23,07,10,-0.10
2009,04,23,07,11,-0.10
2009,04,23,07,12,-0.10
2009,04,23,07,13,-0.10
2009,04,23,07,14,-0.10
2009,04,23,07,15,-0.10
2009,04,23,07,16,0.00
2009,04,23,07,17,0.00
2009,04,23,07,18,0.10
2009,04,23,07,19,0.10
2009,04,23,07,20,0.10
2009,04,23,07,21,0.10
2009,04,23,07,22,0.10
2009,04,23,07,23,0.10
2009,04,23,07,24,0.20
2009,04,23,07,25,0.20
2009,04,23,07,26,0.20
2009,04,23,07,27,0.20
2009,04,23,07,28,0.30
2009,04,23,07,29,0.30
2009,04,23,07,30,0.30
2009,04,23,07,31,0.40
2009,04,23,07,32,0.40
2009,04,23,07,33,0.40
2009,04,23,07,34,0.50
2009,04,23,07,35,0.50
2009,04,23,07,36,0.60
2009,04,23,07,37,0.60
2009,04,23,07,38,0.70
2009,04,23,07,39,0.70
2009,04,23,07,40,0.70
2009,04,23,07,41,0.80
2009,04,23,07,42,0.80
2009,04,23,07,43,0.80
2009,04,23,07,44,0.90
2009,04,23,07,45,1.00
2009,04,23,07,46,1.10
2009,04,23,07,47,1.10
2009,04,23,07,48,1.10
2009,04,23,07,49,1.10
2009,04,23,07,50,1.20
2009,04,23,07,51,1.20
2009,04,23,07,52,1.20
2009,04,23,07,53,1.20
2009,04,23,07,54,1.30
2009,04,23,07,55,1.30
2009,04,23,07,56,1.30
2009,04,23,07,57,1.30
2009,04,23,07,58,1.30
2009,04,23,07,59,1.30
2009,04,23,08,00,1.30
2009,04,23,08,02,1.30
2009,04,23,08,03,1.20
2009,04,23,08,04,1.30
2009,04,23,08,05,1.30
2009,04,23,08,06,1.30
2009,04,23,08,07,1.30
2009,04,23,08,08,1.30
2009,04,23,08,09,1.30
2009,04,23,08,10,1.30
2009,04,23,08,11,1.30
2009,04,23,08,12,1.30
2009,04,23,08,13,1.40
2009,04,23,08,14,1.40
2009,04,23,08,15,1.50
2009,04,23,08,16,1.50
2009,04,23,08,17,1.60
2009,04,23,08,18,1.60
2009,04,23,08,19,1.60
2009,04,23,08,20,1.60
2009,04,23,08,21,1.50
2009,04,23,08,22,1.40
2009,04,23,08,23,1.40
2009,04,23,08,24,1.40
2009,04,23,08,25,1.30
2009,04,23,08,26,1.30
2009,04,23,08,27,1.30
2009,04,23,08,28,1.30
2009,04,23,08,29,1.30
2009,04,23,08,30,1.30
2009,04,23,08,31,1.30
2009,04,23,08,32,1.30
2009,04,23,08,33,1.30
2009,04,23,08,34,1.30
2009,04,23,08,35,1.30
2009,04,23,08,36,1.30
2009,04,23,08,37,1.30
2009,04,23,08,38,1.40
2009,04,23,08,39,1.40
2009,04,23,08,40,1.40
2009,04,23,08,41,1.50
2009,04,23,08,43,1.60
2009,04,23,08,44,1.70
2009,04,23,08,45,1.70
2009,04,23,08,46,1.70
2009,04,23,08,47,1.80
2009,04,23,08,48,1.80
2009,04,23,08,49,1.90
2009,04,23,08,50,1.90
2009,04,23,08,51,2.00
2009,04,23,08,52,2.10
2009,04,23,08,53,2.20
2009,04,23,08,54,2.30
2009,04,23,08,55,2.30
2009,04,23,08,56,2.50
2009,04,23,08,57,2.60
2009,04,23,08,58,2.70
2009,04,23,08,59,2.80
2009,04,23,09,00,2.80
2009,04,23,09,02,2.90
2009,04,23,09,03,3.10
2009,04,23,09,04,3.10
2009,04,23,09,05,3.20
2009,04,23,09,06,3.30
2009,04,23,09,07,3.50
2009,04,23,09,08,3.70
2009,04,23,09,09,3.80
2009,04,23,09,11,3.90
2009,04,23,09,12,4.00
2009,04,23,09,13,3.90
2009,04,23,09,14,3.90
2009,04,23,09,15,3.90
2009,04,23,09,17,4.00
2009,04,23,09,18,4.10
2009,04,23,09,19,4.10
2009,04,23,09,20,4.10
2009,04,23,09,21,4.20
2009,04,23,09,22,4.20
2009,04,23,09,23,4.30
2009,04,23,09,24,4.40
2009,04,23,09,25,4.40
2009,04,23,09,26,4.40
2009,04,23,09,27,4.50
2009,04,23,09,28,4.60
2009,04,23,09,29,4.60
2009,04,23,09,30,4.70
2009,04,23,09,31,4.80
2009,04,23,09,32,4.90
2009,04,23,09,33,5.10
2009,04,23,09,34,5.10
2009,04,23,09,35,5.20
2009,04,23,09,36,5.20
2009,04,23,09,37,5.20
2009,04,23,09,38,5.20
2009,04,23,09,39,5.10
2009,04,23,09,40,5.10
2009,04,23,09,41,5.00
2009,04,23,09,42,5.00
2009,04,23,09,43,5.00
2009,04,23,09,44,5.10
2009,04,23,09,45,5.10
2009,04,23,09,46,5.10
2009,04,23,09,47,5.20
2009,04,23,09,48,5.30
2009,04,23,09,49,5.40
2009,04,23,09,50,5.60
2009,04,23,09,51,5.70
2009,04,23,09,52,5.80
2009,04,23,09,53,5.90
2009,04,23,09,54,6.10
2009,04,23,09,55,6.20
2009,04,23,09,56,6.20
2009,04,23,09,57,6.20
2009,04,23,09,58,6.20
2009,04,23,09,59,6.20
2009,04,23,10,00,6.20
2009,04,23,10,02,6.40
2009,04,23,10,03,6.40
2009,04,23,10,04,6.50
2009,04,23,10,05,6.60
2009,04,23,10,06,6.70
2009,04,23,10,07,6.70
2009,04,23,10,08,6.80
2009,04,23,10,09,6.80
2009,04,23,10,10,6.90
2009,04,23,10,11,6.90
2009,04,23,10,12,7.00
2009,04,23,10,13,7.10
2009,04,23,10,14,7.20
2009,04,23,10,15,7.20
2009,04,23,10,16,7.30
2009,04,23,10,17,7.40
2009,04,23,10,18,7.50
2009,04,23,10,19,7.60
2009,04,23,10,20,7.70
2009,04,23,10,22,7.90
2009,04,23,10,23,8.00
2009,04,23,10,24,8.10
2009,04,23,10,25,8.20
2009,04,23,10,26,8.30
2009,04,23,10,27,8.40
2009,04,23,10,29,8.60
2009,04,23,10,30,8.80
2009,04,23,10,31,8.90
2009,04,23,10,32,9.00
2009,04,23,10,33,9.10
2009,04,23,10,34,9.20
2009,04,23,10,35,9.20
2009,04,23,10,36,9.30
2009,04,23,10,37,9.40
2009,04,23,10,38,9.60
2009,04,23,10,39,9.60
2009,04,23,10,40,9.70
2009,04,23,10,41,9.80
2009,04,23,10,42,9.80
2009,04,23,10,43,9.90
2009,04,23,10,44,10.00
2009,04,23,10,45,10.10
2009,04,23,10,46,10.20
2009,04,23,10,47,10.30
2009,04,23,10,48,10.40
2009,04,23,10,49,10.60
2009,04,23,10,50,10.70
2009,04,23,10,52,10.90
2009,04,23,10,53,10.90
2009,04,23,10,54,11.10
2009,04,23,10,55,11.20
2009,04,23,10,56,11.30
2009,04,23,10,57,11.40
2009,04,23,10,58,11.50
2009,04,23,10,59,11.60
2009,04,23,11,00,11.70
2009,04,23,11,02,12.00
2009,04,23,11,03,12.10
2009,04,23,11,04,12.10
2009,04,23,11,05,12.20
2009,04,23,11,06,12.20
2009,04,23,11,07,12.20
2009,04,23,11,08,12.00
2009,04,23,11,09,11.90
2009,04,23,11,10,11.90
2009,04,23,11,11,11.90
2009,04,23,11,12,12.00
2009,04,23,11,13,12.00
2009,04,23,11,14,12.10
2009,04,23,11,15,12.10
2009,04,23,11,16,12.20
2009,04,23,11,17,12.30
2009,04,23,11,18,12.30
2009,04,23,11,19,12.40
2009,04,23,11,20,12.50
2009,04,23,11,21,12.60
2009,04,23,11,22,12.60
2009,04,23,11,23,12.70
2009,04,23,11,24,12.70
2009,04,23,11,25,12.70
2009,04,23,11,26,12.80
2009,04,23,11,27,12.80
2009,04,23,11,28,12.80
2009,04,23,11,29,12.80
2009,04,23,11,30,12.80
2009,04,23,11,31,12.90
2009,04,23,11,32,12.90
2009,04,23,11,33,13.00
2009,04,23,11,34,13.10
2009,04,23,11,35,13.20
2009,04,23,11,36,13.20
2009,04,23,11,37,13.30
2009,04,23,11,38,13.30
2009,04,23,11,39,13.30
2009,04,23,11,40,13.30
2009,04,23,11,41,13.30
2009,04,23,11,42,13.30
2009,04,23,11,44,13.10
2009,04,23,11,45,13.00
2009,04,23,11,46,13.00
2009,04,23,11,47,13.00
2009,04,23,11,48,13.10
2009,04,23,11,49,13.10
2009,04,23,11,50,13.10
2009,04,23,11,51,13.20
2009,04,23,11,52,13.20
2009,04,23,11,53,13.30
2009,04,23,11,54,13.30
2009,04,23,11,55,13.30
2009,04,23,11,56,13.30
2009,04,23,11,57,13.40
2009,04,23,11,58,13.40
2009,04,23,11,59,13.40
2009,04,23,12,00,13.30
2009,04,23,12,02,13.20
2009,04,23,12,03,13.20
2009,04,23,12,04,13.20
2009,04,23,12,05,13.30
2009,04,23,12,06,13.30
2009,04,23,12,07,13.40
2009,04,23,12,08,13.50
2009,04,23,12,09,13.60
2009,04,23,12,10,13.70
2009,04,23,12,11,13.70
2009,04,23,12,12,13.80
2009,04,23,12,13,13.90
2009,04,23,12,14,14.00
2009,04,23,12,15,14.10
2009,04,23,12,16,14.10
2009,04,23,12,17,14.20
2009,04,23,12,18,14.20
2009,04,23,12,19,14.30
2009,04,23,12,20,14.40
2009,04,23,12,21,14.40
2009,04,23,12,22,14.40
2009,04,23,12,23,14.40
2009,04,23,12,24,14.40
2009,04,23,12,25,14.40
2009,04,23,12,26,14.40
2009,04,23,12,27,14.40
2009,04,23,12,28,14.50
2009,04,23,12,29,14.40
2009,04,23,12,30,14.30
2009,04,23,12,31,14.30
2009,04,23,12,32,14.10
2009,04,23,12,33,13.90
2009,04,23,12,34,13.80
2009,04,23,12,35,13.70
2009,04,23,12,36,13.70
2009,04,23,12,37,13.60
2009,04,23,12,38,13.60
2009,04,23,12,39,13.60
2009,04,23,12,41,13.50
2009,04,23,12,42,13.50
2009,04,23,12,43,13.50
2009,04,23,12,44,13.40
2009,04,23,12,45,13.40
2009,04,23,12,46,13.40
2009,04,23,12,47,13.40
2009,04,23,12,48,13.40
2009,04,23,12,49,13.40
2009,04,23,12,50,13.40
2009,04,23,12,51,13.40
2009,04,23,12,52,13.40
2009,04,23,12,53,13.40
2009,04,23,12,54,13.30
2009,04,23,12,55,13.30
2009,04,23,12,56,13.20
2009,04,23,12,57,13.20
2009,04,23,12,58,13.30
2009,04,23,12,59,13.30
2009,04,23,13,00,13.30
2009,04,23,13,02,13.10
2009,04,23,13,03,13.00
2009,04,23,13,04,12.90
2009,04,23,13,05,13.00
2009,04,23,13,06,13.10
2009,04,23,13,07,13.20
2009,04,23,13,08,13.20
2009,04,23,13,09,13.20
2009,04,23,13,10,13.20
2009,04,23,13,11,13.20
2009,04,23,13,12,13.20
2009,04,23,13,13,13.30
2009,04,23,13,14,13.30
2009,04,23,13,15,13.30
2009,04,23,13,16,13.40
2009,04,23,13,17,13.40
2009,04,23,13,18,13.40
2009,04,23,13,19,13.40
2009,04,23,13,20,13.50
2009,04,23,13,21,13.50
2009,04,23,13,22,13.50
2009,04,23,13,23,13.50
2009,04,23,13,24,13.50
2009,04,23,13,25,13.60
2009,04,23,13,26,13.60
2009,04,23,13,27,13.60
2009,04,23,13,28,13.60
2009,04,23,13,29,13.70
2009,04,23,13,30,13.80
2009,04,23,13,31,13.80
2009,04,23,13,32,13.70
2009,04,23,13,33,13.70
2009,04,23,13,34,13.80
2009,04,23,13,35,13.70
2009,04,23,13,36,13.70
2009,04,23,13,37,13.70
2009,04,23,13,38,13.80
2009,04,23,13,39,13.80
2009,04,23,13,40,13.80
2009,04,23,13,41,13.90
2009,04,23,13,42,13.90
2009,04,23,13,43,13.90
2009,04,23,13,44,13.90
2009,04,23,13,45,13.90
2009,04,23,13,46,13.90
2009,04,23,13,47,14.00
2009,04,23,13,48,13.90
2009,04,23,13,49,14.00
2009,04,23,13,50,13.90
2009,04,23,13,51,13.90
2009,04,23,13,52,13.90
2009,04,23,13,53,13.90
2009,04,23,13,54,13.90
2009,04,23,13,55,13.90
2009,04,23,13,56,13.90
2009,04,23,13,57,13.90
2009,04,23,13,58,13.90
2009,04,23,13,59,14.00
2009,04,23,14,00,14.00
2009,04,23,14,02,13.90
2009,04,23,14,03,13.80
2009,04,23,14,04,13.80
2009,04,23,14,05,13.70
2009,04,23,14,06,13.70
2009,04,23,14,07,13.60
2009,04,23,14,08,13.60
2009,04,23,14,09,13.60
2009,04,23,14,10,13.50
2009,04,23,14,11,13.50
2009,04,23,14,12,13.60
2009,04,23,14,13,13.60
2009,04,23,14,14,13.70
2009,04,23,14,15,13.70
2009,04,23,14,16,13.80
2009,04,23,14,17,13.90
2009,04,23,14,18,14.00
2009,04,23,14,19,14.10
2009,04,23,14,20,14.10
2009,04,23,14,21,14.20
2009,04,23,14,22,14.20
2009,04,23,14,23,14.20
2009,04,23,14,24,14.20
2009,04,23,14,25,14.20
2009,04,23,14,26,14.20
2009,04,23,14,27,14.20
2009,04,23,14,28,14.10
2009,04,23,14,29,14.10
2009,04,23,14,30,14.10
2009,04,23,14,31,14.10
2009,04,23,14,32,14.10
2009,04,23,14,33,14.10
2009,04,23,14,34,14.10
2009,04,23,14,35,14.10
2009,04,23,14,36,14.20
2009,04,23,14,37,14.20
2009,04,23,14,38,14.10
2009,04,23,14,39,14.10
2009,04,23,14,40,14.00
2009,04,23,14,41,13.90
2009,04,23,14,42,13.90
2009,04,23,14,43,13.90
2009,04,23,14,44,13.90
2009,04,23,14,45,13.90
2009,04,23,14,46,13.90
2009,04,23,14,47,13.80
2009,04,23,14,48,13.90
2009,04,23,14,49,13.90
2009,04,23,14,50,14.00
2009,04,23,14,51,14.00
2009,04,23,14,52,14.00
2009,04,23,14,53,14.10
2009,04,23,14,54,14.10
2009,04,23,14,55,14.10
2009,04,23,14,56,14.20
2009,04,23,14,57,14.20
2009,04,23,14,58,14.30
2009,04,23,14,59,14.30
2009,04,23,15,00,14.40
2009,04,23,15,02,14.30
2009,04,23,15,03,14.30
2009,04,23,15,04,14.30
2009,04,23,15,05,14.30
2009,04,23,15,06,14.20
2009,04,23,15,07,14.20
2009,04,23,15,08,14.20
2009,04,23,15,09,14.20
2009,04,23,15,10,14.20
2009,04,23,15,11,14.20
2009,04,23,15,12,14.30
2009,04,23,15,13,14.30
2009,04,23,15,14,14.30
2009,04,23,15,15,14.30
2009,04,23,15,16,14.30
2009,04,23,15,17,14.30
2009,04,23,15,18,14.30
2009,04,23,15,19,14.30
2009,04,23,15,20,14.30
2009,04,23,15,21,14.30
2009,04,23,15,22,14.30
2009,04,23,15,23,14.40
2009,04,23,15,24,14.40
2009,04,23,15,25,14.40
2009,04,23,15,26,14.40
2009,04,23,15,27,14.40
2009,04,23,15,28,14.40
2009,04,23,15,29,14.40
2009,04,23,15,30,14.40
2009,04,23,15,31,14.50
2009,04,23,15,32,14.50
2009,04,23,15,33,14.50
2009,04,23,15,34,14.50
2009,04,23,15,35,14.40
2009,04,23,15,36,14.40
2009,04,23,15,37,14.40
2009,04,23,15,38,14.40
2009,04,23,15,39,14.40
2009,04,23,15,40,14.40
2009,04,23,15,41,14.50
2009,04,23,15,42,14.40
2009,04,23,15,43,14.40
2009,04,23,15,44,14.40
2009,04,23,15,45,14.30
2009,04,23,15,46,14.30
2009,04,23,15,47,14.30
2009,04,23,15,48,14.30
2009,04,23,15,49,14.40
2009,04,23,15,50,14.40
2009,04,23,15,51,14.40
2009,04,23,15,52,14.50
2009,04,23,15,53,14.60
2009,04,23,15,54,14.50
2009,04,23,15,55,14.40
2009,04,23,15,56,14.40
2009,04,23,15,57,14.30
2009,04,23,15,58,14.30
2009,04,23,15,59,14.30
2009,04,23,16,00,14.40
2009,04,23,16,02,14.40
2009,04,23,16,03,14.50
2009,04,23,16,04,14.60
2009,04,23,16,05,14.60
2009,04,23,16,06,14.70
2009,04,23,16,07,14.70
2009,04,23,16,08,14.70
2009,04,23,16,09,14.70
2009,04,23,16,10,14.70
2009,04,23,16,11,14.70
2009,04,23,16,12,14.70
2009,04,23,16,13,14.70
2009,04,23,16,14,14.70
2009,04,23,16,15,14.70
2009,04,23,16,16,14.70
2009,04,23,16,17,14.70
2009,04,23,16,18,14.70
2009,04,23,16,19,14.70
2009,04,23,16,20,14.70
2009,04,23,16,21,14.70
2009,04,23,16,22,14.70
2009,04,23,16,23,14.70
2009,04,23,16,24,14.70
2009,04,23,16,25,14.80
2009,04,23,16,26,14.80
2009,04,23,16,27,14.80
2009,04,23,16,28,14.90
2009,04,23,16,29,14.90
2009,04,23,16,30,14.80
2009,04,23,16,31,14.80
2009,04,23,16,32,14.90
2009,04,23,16,33,15.00
2009,04,23,16,34,15.00
2009,04,23,16,35,15.00
2009,04,23,16,36,15.00
2009,04,23,16,37,15.00
2009,04,23,16,38,15.00
2009,04,23,16,39,15.00
2009,04,23,16,40,15.00
2009,04,23,16,41,15.00
2009,04,23,16,42,14.90
2009,04,23,16,43,14.90
2009,04,23,16,44,14.90
2009,04,23,16,45,14.90
2009,04,23,16,46,15.00
2009,04,23,16,47,15.00
2009,04,23,16,48,15.00
2009,04,23,16,49,15.00
2009,04,23,16,50,15.10
2009,04,23,16,51,15.10
2009,04,23,16,52,15.10
2009,04,23,16,53,15.00
2009,04,23,16,54,15.00
2009,04,23,16,55,15.00
2009,04,23,16,56,15.00
2009,04,23,16,57,15.00
2009,04,23,16,58,15.00
2009,04,23,16,59,15.00
2009,04,23,17,00,14.90
2009,04,23,17,02,14.90
2009,04,23,17,03,15.00
2009,04,23,17,04,15.00
2009,04,23,17,05,15.00
2009,04,23,17,06,15.00
2009,04,23,17,07,15.00
2009,04,23,17,08,15.00
2009,04,23,17,09,15.00
2009,04,23,17,10,14.90
2009,04,23,17,11,14.80
2009,04,23,17,12,14.80
2009,04,23,17,13,14.70
2009,04,23,17,14,14.70
2009,04,23,17,15,14.60
2009,04,23,17,16,14.60
2009,04,23,17,17,14.50
2009,04,23,17,18,14.50
2009,04,23,17,19,14.50
2009,04,23,17,20,14.50
2009,04,23,17,21,14.60
2009,04,23,17,22,14.60
2009,04,23,17,23,14.70
2009,04,23,17,24,14.70
2009,04,23,17,25,14.70
2009,04,23,17,26,14.70
2009,04,23,17,27,14.70
2009,04,23,17,28,14.70
2009,04,23,17,29,14.70
2009,04,23,17,30,14.60
2009,04,23,17,31,14.60
2009,04,23,17,32,14.60
2009,04,23,17,33,14.60
2009,04,23,17,34,14.60
2009,04,23,17,35,14.50
2009,04,23,17,36,14.50
2009,04,23,17,37,14.60
2009,04,23,17,38,14.60
2009,04,23,17,39,14.60
2009,04,23,17,40,14.70
2009,04,23,17,41,14.70
2009,04,23,17,42,14.60
2009,04,23,17,43,14.60
2009,04,23,17,44,14.70
2009,04,23,17,45,14.70
2009,04,23,17,46,14.70
2009,04,23,17,47,14.80
2009,04,23,17,48,14.80
2009,04,23,17,49,14.80
2009,04,23,17,50,14.70
2009,04,23,17,51,14.70
2009,04,23,17,52,14.70
2009,04,23,17,53,14.70
2009,04,23,17,54,14.80
2009,04,23,17,55,14.80
2009,04,23,17,56,14.80
2009,04,23,17,57,14.80
2009,04,23,17,58,14.70
2009,04,23,17,59,14.70
2009,04,23,18,00,14.70
2009,04,23,18,02,14.70
2009,04,23,18,03,14.70
2009,04,23,18,04,14.70
2009,04,23,18,05,14.70
2009,04,23,18,06,14.70
2009,04,23,18,07,14.60
2009,04,23,18,08,14.60
2009,04,23,18,09,14.60
2009,04,23,18,10,14.50
2009,04,23,18,11,14.60
2009,04,23,18,12,14.60
2009,04,23,18,13,14.60
2009,04,23,18,14,14.50
2009,04,23,18,15,14.50
2009,04,23,18,16,14.50
2009,04,23,18,17,14.50
2009,04,23,18,18,14.40
2009,04,23,18,19,14.30
2009,04,23,18,20,14.30
2009,04,23,18,21,14.20
2009,04,23,18,22,14.20
2009,04,23,18,23,14.10
2009,04,23,18,24,14.10
2009,04,23,18,25,14.00
2009,04,23,18,26,13.90
2009,04,23,18,27,13.90
2009,04,23,18,28,13.90